Flag for Oman Weather past 2 weeks in Salalah, Oman

Now
90 °F

Passing clouds.


Feels Like: 87 °F
Forecast: 80 / 94 °F
Wind: 7 mph from Southeast

Location: Salalah Airport

Current Time: Oct 25, 2014 at 3:28:37 PM

Latest Report: Oct 25, 2014 at 2:50 PM


Visibility: N/A

Pressure: 29.77 "Hg

Humidity: 29%

Dew point: 54 °F

Location of SalalahLocation

Historic Weather in Salalah — Graph

°F

Salalah temperature yesterday

Maximum temperature yesterday: 99 °F (at 11:50 AM)
Minimum temperature yesterday: 77 °F (at 1:50 AM)
Average temperature yesterday: 85 °F

Past Weeks' High & Low Weather Summary

 TemperatureHumidityPressure
High99 °F (Oct 24, 11:50 AM)79% (Oct 10, 11:50 PM)30.04 "Hg (Oct 10, 11:50 PM)
Low72 °F (Oct 17, 5:50 AM)14% (Oct 25, 11:50 AM)29.77 "Hg (Oct 25, 1:50 PM)
Average82 °F57%29.89 "Hg
* Reported Oct 10 1:50 PM — Oct 25 1:50 PM, Salalah, Weather by CustomWeather, © 2014

Note: Actual official high and low records may vary slightly from our data, if they occured in-between our weather recording intervals... More about our weather records

Advertising

Salalah weather history for previous 24 hours

 ConditionsComfort  
Time TempWeatherWind HumidityBarometerVisibility
1:50 PM
Oct 25
90 °FHot.10 mph31%29.77 "HgN/A
12:50 PM88 °FWarm.12 mph46%29.80 "HgN/A
11:50 AM97 °FExtremely hot.15 mph14%29.80 "Hg3 mi
10:50 AM95 °FPassing clouds.9 mph15%29.83 "HgN/A
9:50 AM91 °FSunny.3 mph26%29.86 "Hg10 mi
8:50 AM91 °FSunny.1 mph23%29.86 "Hg10 mi
7:50 AM84 °FSunny.2 mph27%29.86 "Hg10 mi
6:50 AM79 °FPleasantly warm.3 mph34%29.83 "HgN/A
5:50 AM79 °FClear.2 mph34%29.83 "Hg10 mi
4:50 AM77 °FWarm.1 mph51%29.80 "HgN/A
3:50 AM77 °FWarm.1 mph51%29.80 "HgN/A
2:50 AM79 °FClear.3 mph48%29.80 "Hg10 mi
1:50 AM79 °FWarm.3 mph58%29.83 "HgN/A
12:50 AM79 °FClear.5 mph61%29.83 "Hg10 mi
11:50 PM
Oct 24
79 °FWarm.3 mph61%29.86 "HgN/A
10:50 PM81 °FWarm.3 mph54%29.86 "HgN/A
9:50 PM82 °FClear.3 mph55%29.86 "Hg10 mi
8:50 PM82 °FWarm.2 mph66%29.86 "HgN/A
7:50 PM82 °FClear.No wind66%29.86 "Hg10 mi
6:50 PM82 °FClear.2 mph70%29.83 "Hg10 mi
5:50 PM84 °FPassing clouds.5 mph62%29.83 "HgN/A
4:50 PM88 °FPartly sunny.6 mph43%29.80 "HgN/A
3:50 PM90 °FHot.8 mph41%29.80 "HgN/A
Weather by CustomWeather, © 2014

See weather overviewHow to use our weather pages